ICULIA30 Weather Reports


time (UTC)temp
F
wind
direction
speed
knots
gust
knots
rain 1hr
in
rain 24hr
in
rain mn
in
humidity
%
barometer
mb
20260507172016 81 237 0.0 2.6 0.00 0.00 0.00 42 1012.4
20260507171017 80 241 0.9 1.7 0.00 0.00 0.00 43 1012.4
20260507170017 80 280 0.9 1.7 0.00 0.00 0.00 44 1012.3
20260507165016 80 267 0.9 1.7 0.00 0.00 0.00 44 1012.2
20260507164056 79 245 0.9 2.6 0.00 0.00 0.00 44 1012.4
20260507163016 79 300 0.9 2.6 0.00 0.00 0.00 45 1012.3
20260507162037 79 257 0.9 2.6 0.00 0.00 0.00 46 1012.3
20260507161017 79 295 1.7 3.5 0.00 0.00 0.00 46 1012.3
20260507160016 78 166 0.9 2.6 0.00 0.00 0.00 49 1012.3
20260507155016 78 185 0.9 2.6 0.00 0.00 0.00 47 1012.2
20260507154017 78 194 1.7 4.3 0.00 0.00 0.00 48 1012.2
20260507153037 79 211 0.9 3.5 0.00 0.00 0.00 48 1012.1
20260507152036 79 192 1.7 3.5 0.00 0.00 0.00 50 1012.2
20260507151037 79 208 0.9 2.6 0.00 0.00 0.00 51 1012.0
20260507150037 80 210 1.7 3.5 0.00 0.00 0.00 50 1012.0
20260507145016 80 314 0.9 2.6 0.00 0.00 0.00 46 1011.7
20260507144016 80 339 0.0 2.6 0.00 0.00 0.00 46 1011.6
20260507143016 79 295 0.9 2.6 0.00 0.00 0.00 48 1011.6
20260507142017 77 226 0.9 1.7 0.00 0.00 0.00 56 1011.4
20260507141016 75 176 0.9 2.6 0.00 0.00 0.00 59 1011.3
20260507140016 75 190 0.9 1.7 0.00 0.00 0.00 59 1011.3
20260507135037 75 194 0.9 1.7 0.00 0.00 0.00 55 1011.2
20260507134016 75 240 0.9 1.7 0.00 0.00 0.00 52 1010.8
20260507133036 75 0.0 0.0 0.00 0.00 0.00 53 1010.6
20260507132016 75 314 0.0 1.7 0.00 0.00 0.00 54 1010.6
20260507131017 75 5 0.0 1.7 0.00 0.00 0.00 53 1010.7
20260507130016 75 278 0.0 1.7 0.00 0.00 0.00 53 1010.4
20260507125016 74 193 0.0 2.6 0.00 0.00 0.00 52 1010.1
20260507124017 74 300 0.0 1.7 0.00 0.00 0.00 52 1009.9
20260507123016 75 346 0.9 2.6 0.00 0.00 0.00 51 1010.0
20260507122036 75 330 0.9 1.7 0.00 0.00 0.00 51 1010.1
20260507121016 75 330 0.9 1.7 0.00 0.00 0.00 52 1010.1
20260507120016 75 336 0.9 1.7 0.00 0.00 0.00 53 1010.2
20260507115037 75 336 0.0 1.7 0.00 0.00 0.00 52 1010.1
20260507114017 75 336 0.0 1.7 0.00 0.00 0.00 51 1010.0
20260507113017 75 346 1.7 2.6 0.00 0.00 0.00 51 1009.8
20260507112036 76 292 0.0 1.7 0.00 0.00 0.00 51 1009.9
20260507111016 76 294 0.9 1.7 0.00 0.00 0.00 51 1010.2
20260507110036 76 297 0.9 1.7 0.00 0.00 0.00 51 1010.1
20260507105016 76 14 0.9 1.7 0.00 0.00 0.00 52 1010.0
20260507104017 76 72 0.9 1.7 0.00 0.00 0.00 51 1009.8
20260507103016 76 54 0.9 1.7 0.00 0.00 0.00 52 1009.7
20260507102017 76 34 0.0 1.7 0.00 0.00 0.00 52 1009.5
20260507101016 76 34 0.0 1.7 0.00 0.00 0.00 52 1009.5
20260507100037 76 29 0.9 1.7 0.00 0.00 0.00 51 1009.5
20260507095016 76 26 0.9 2.6 0.00 0.00 0.00 51 1009.5
20260507094016 76 2 0.9 2.6 0.00 0.00 0.00 50 1009.5
20260507093016 76 318 2.6 4.3 0.00 0.00 0.00 50 1009.7
20260507092037 77 321 1.7 3.5 0.00 0.00 0.00 49 1009.9
20260507091017 77 323 2.6 4.3 0.00 0.00 0.00 49 1009.9
20260507090036 77 320 1.7 3.5 0.00 0.00 0.00 48 1009.9
20260507085016 77 348 0.9 1.7 0.00 0.00 0.00 48 1010.0
20260507084016 78 55 0.0 1.7 0.00 0.00 0.00 48 1010.1
20260507083016 78 55 0.0 1.7 0.00 0.00 0.00 48 1010.1
20260507082016 79 12 0.0 1.7 0.00 0.00 0.00 46 1010.2
20260507081016 79 0.0 1.7 0.00 0.00 0.00 46 1010.2
20260507080016 79 12 0.9 1.7 0.00 0.00 0.00 46 1010.3
20260507075017 78 5 0.0 2.6 0.00 0.00 0.00 46 1010.4
20260507074016 79 347 0.9 1.7 0.00 0.00 0.00 46 1010.9
20260507073016 79 347 0.9 1.7 0.00 0.00 0.00 46 1011.2
20260507072016 79 348 0.0 1.7 0.00 0.00 0.00 45 1011.2
20260507071037 79 338 1.7 2.6 0.00 0.00 0.00 45 1011.3
20260507070016 80 12 0.0 1.7 0.00 0.00 0.00 44 1011.5
20260507065016 80 349 0.9 2.6 0.00 0.00 0.00 44 1011.3
20260507064016 80 342 1.7 4.3 0.00 0.00 0.00 44 1011.5
20260507063016 80 8 1.7 4.3 0.00 0.00 0.00 45 1011.4
20260507062017 80 12 0.9 4.3 0.00 0.00 0.00 45 1011.7
20260507061017 79 22 0.9 3.5 0.00 0.00 0.00 47 1011.8
20260507060057 80 21 2.6 4.3 0.00 0.00 0.00 47 1011.6
20260507055016 80 329 1.7 3.5 0.00 0.00 0.00 47 1011.9
20260507054016 79 318 0.9 3.5 0.00 0.00 0.00 46 1011.9
20260507053016 79 352 0.0 1.7 0.00 0.00 0.00 45 1011.9
20260507052017 79 5 0.9 1.7 0.00 0.00 0.00 45 1012.0
20260507051016 79 325 0.9 2.6 0.00 0.00 0.00 44 1011.8
20260507050016 80 301 0.9 1.7 0.00 0.00 0.00 43 1011.5
20260507045016 80 296 0.9 2.6 0.00 0.00 0.00 43 1011.9
20260507044016 80 309 0.9 1.7 0.00 0.00 0.00 42 1011.7
20260507043036 80 315 0.9 1.7 0.00 0.00 0.00 42 1011.6
20260507042016 80 332 0.0 1.7 0.00 0.00 0.00 42 1011.6
20260507041016 81 329 0.9 1.7 0.00 0.00 0.00 41 1011.5
20260507040016 81 297 1.7 2.6 0.00 0.00 0.00 41 1011.6
20260507035036 81 250 0.9 1.7 0.00 0.00 0.00 42 1011.5
20260507034036 81 211 0.9 2.6 0.00 0.00 0.00 43 1011.6
20260507033017 81 318 1.7 2.6 0.00 0.00 0.00 44 1011.3
20260507032017 81 315 1.7 2.6 0.00 0.00 0.00 45 1011.3
20260507031016 81 301 1.7 3.5 0.00 0.00 0.00 45 1011.3
20260507030016 81 309 1.7 4.3 0.00 0.00 0.00 47 1011.2
20260507025016 81 296 0.9 3.5 0.00 0.00 0.00 49 1011.1
20260507024016 81 311 2.6 8.7 0.00 0.00 0.00 48 1011.1
20260507023016 82 291 2.6 5.2 0.00 0.00 0.00 49 1011.0
20260507022057 82 305 2.6 5.2 0.00 0.00 0.00 49 1010.9
20260507021016 82 285 1.7 8.7 0.00 0.00 0.00 49 1010.9
20260507020016 83 309 3.5 10.4 0.00 0.00 0.00 48 1010.8
20260507015016 83 279 1.7 4.3 0.00 0.00 0.00 48 1010.6
20260507014036 84 303 2.6 7.0 0.00 0.00 0.00 47 1010.6
20260507013016 84 302 1.7 5.2 0.00 0.00 0.00 47 1010.5
20260507012017 84 292 2.6 7.0 0.00 0.00 0.00 47 1010.6
20260507011016 85 305 2.6 7.0 0.00 0.00 0.00 46 1010.3
20260507010016 86 290 1.7 7.0 0.00 0.00 0.00 45 1010.2
20260507005016 86 301 3.5 10.4 0.00 0.00 0.00 43 1010.0
20260507004016 87 289 2.6 10.4 0.00 0.00 0.00 44 1010.0
20260507003016 87 290 3.5 7.8 0.00 0.00 0.00 44 1009.8
20260507002016 87 270 4.3 10.4 0.00 0.00 0.00 44 1009.7
20260507001017 88 286 4.3 9.6 0.00 0.00 0.00 43 1009.6
20260507000016 88 284 4.3 11.3 0.00 0.00 0.00 42 1009.6
20260506235016 88 301 3.5 10.4 0.00 0.00 0.00 43 1009.6
20260506234016 89 284 3.5 12.2 0.00 0.00 0.00 42 1009.6
20260506233016 89 303 3.5 11.3 0.00 0.00 0.00 41 1009.6
20260506232016 90 292 4.3 10.4 0.00 0.00 0.00 41 1009.6
20260506231036 90 297 5.2 11.3 0.00 0.00 0.00 39 1009.6
20260506230036 91 319 5.2 13.0 0.00 0.00 0.00 37 1009.5
20260506225016 91 299 3.5 8.7 0.00 0.00 0.00 38 1009.5
20260506224016 91 285 4.3 11.3 0.00 0.00 0.00 37 1009.6
20260506223016 91 300 4.3 11.3 0.00 0.00 0.00 36 1009.6
20260506222016 92 309 6.1 13.0 0.00 0.00 0.00 35 1009.7
20260506221016 93 303 5.2 13.0 0.00 0.00 0.00 34 1009.7
20260506220016 94 293 5.2 12.2 0.00 0.00 0.00 32 1009.6
20260506215016 97 266 5.2 12.2 0.00 0.00 0.00 29 1009.5
20260506214016 97 281 1.7 7.8 0.00 0.00 0.00 27 1009.5
20260506213016 97 310 3.5 10.4 0.00 0.00 0.00 28 1009.5
20260506212016 97 307 4.3 14.8 0.00 0.00 0.00 27 1009.7
20260506211016 98 327 4.3 12.2 0.00 0.00 0.00 26 1009.7
20260506210016 98 343 3.5 7.8 0.00 0.00 0.00 26 1009.8
20260506205016 99 303 3.5 7.8 0.00 0.00 0.00 25 1010.0
20260506204016 99 289 3.5 8.7 0.00 0.00 0.00 25 1010.1
20260506203016 99 239 1.7 5.2 0.00 0.00 0.00 24 1010.2
20260506202036 99 303 3.5 8.7 0.00 0.00 0.00 23 1010.3
20260506201016 99 282 3.5 7.8 0.00 0.00 0.00 24 1010.4
20260506200016 99 288 1.7 7.0 0.00 0.00 0.00 24 1010.5
20260506195016 98 307 1.7 4.3 0.00 0.00 0.00 27 1010.7
20260506194016 97 181 2.6 8.7 0.00 0.00 0.00 27 1010.8
20260506193036 97 300 2.6 8.7 0.00 0.00 0.00 28 1011.1
20260506192016 96 323 1.7 6.1 0.00 0.00 0.00 30 1011.3
20260506191016 96 260 2.6 8.7 0.00 0.00 0.00 30 1011.4
20260506190018 95 285 3.5 8.7 0.00 0.00 0.00 31 1011.5
20260506185016 96 236 2.6 5.2 0.00 0.00 0.00 32 1011.7
20260506184016 94 176 0.9 6.1 0.00 0.00 0.00 34 1011.8
20260506183057 93 355 3.5 9.6 0.00 0.00 0.00 36 1011.9
20260506182016 93 321 2.6 7.0 0.00 0.00 0.00 36 1011.9
20260506181036 92 303 2.6 8.7 0.00 0.00 0.00 38 1012.0
20260506180016 91 335 5.2 8.7 0.00 0.00 0.00 38 1012.1
20260506175016 91 293 2.6 8.7 0.00 0.00 0.00 39 1012.1
20260506174016 90 336 3.5 8.7 0.00 0.00 0.00 39 1012.3
20260506173016 91 330 3.5 7.8 0.00 0.00 0.00 37 1012.3